Location: ??????
(56.0120°N, 39.1740°E)
Time: 06:18:28
(UTC+00:00)

Cosmos 2056 Rocket - Pass Details

Date: 14 April 2026
Orbit: 738 x 796 km, 74.0° (Epoch: 10 May)

Event Time Altitude Azimuth Distance (km) Brightness Sun altitude
Exits shadow 23:17:10 29° 256° (WSW) 1,425 4.5 -20.2°
Maximum altitude 23:19:27 45° 309° (NW) 1,079 4.3 -20.0°
Drops below altitude 10° 23:24:40 10° 22° (NNE) 2,380 7.2 -19.6°
Sets 23:27:11 0° 29° (NNE) 3,312 8.4 -19.5°
